Location: Panjas
(43.8207°N, 0.0888°W)
Time: 15:33:11
(UTC+00:00)

Daily predictions for brighter satellites

Satellite Brightness Start Highest point End
(mag) Time Altitude Azimuth Time Altitude Azimuth Time Altitude Azimuth
Cosmos 676 Rocket 4.4 19:34:29 10° N 19:39:32 47° ENE 19:44:31 10° SE
Cosmos 1975 Rocket 3.6 19:36:57 10° NNW 19:41:16 64° W 19:45:30 10° S
Cosmos 1605 Rocket 4.1 19:37:34 10° S 19:43:43 85° W 19:50:01 10° N
Cosmos 1980 Rocket 3.7 19:47:18 10° N 19:51:48 23° NE 19:56:17 10° ESE
Okean 1 Rocket 3.9 19:48:11 10° SSE 19:52:01 31° E 19:55:55 10° NNE
ARIANE 6 FM1 Upper Stage 3.4 19:49:28 10° NW 19:53:17 46° WSW 19:57:05 10° SSE
SL-08 R/B 4.1 19:49:08 10° NNE 19:53:26 31° E 19:57:38 10° SSE
SL-24 R/B 4.2 19:50:49 10° NNE 19:55:24 90° WNW 19:59:43 10° SSW
Cosmos 2084 4.2 19:51:28 10° SW 19:55:32 56° NW 19:59:37 10° NNE
Meteor 2-3 Rocket 4.1 19:52:49 10° N 19:58:14 45° ENE 20:03:37 10° SSE
CZ-4 R/B 1.1 19:54:44 10° SSE 19:58:21 89° ENE 20:02:00 10° NNW
CZ-4B R/B 4.0 19:57:26 10° S 20:01:24 76° WSW 20:05:26 10° NNW
ASTEX 1 3.4 19:59:32 10° S 20:04:29 84° E 20:09:28 10° N
SPOT 5 3.5 20:00:29 10° S 20:04:39 49° W 20:08:51 10° NNW
CZ-4B DEB 4.2 20:00:26 10° SSE 20:05:57 84° ENE 20:11:30 10° NNW
Cosmos 2056 Rocket 3.9 20:02:12 10° SSW 20:07:36 75° WNW 20:13:00 10° NNE
CZ-4B R/B 3.4 20:02:44 10° SSE 20:08:18 65° ENE 20:13:54 10° N
Cosmos 1833 Rocket 2.7 20:02:58 10° SSW 20:08:35 89° ESE 20:14:14 10° NNE
CSL-04 Rocket 4.3 20:03:35 10° S 20:09:01 59° WSW 20:14:27 10° NNW
Cosmos 1110 Rocket 4.3 20:04:04 10° S 20:09:06 47° ESE 20:14:09 10° NNE
Cosmos 1624 Rocket 4.3 20:05:25 10° SSW 20:10:34 72° WNW 20:15:46 10° NNE
Terra 1.8 20:07:51 10° SSE 20:12:31 72° ENE 20:17:12 10° N
CBERS 1 LM4 rocket 4.4 20:08:12 10° SSE 20:13:02 75° ENE 20:18:06 10° N
Gbstr 26 Del rocket 4.3 20:09:25 10° NW 20:14:24 39° NNE 20:18:33 10° E
Sich 1 Rocket 3.8 20:10:38 10° SSE 20:14:48 47° E 20:18:59 10° NNE
SJ 16-02 3.4 20:18:02 10° NW 20:21:27 24° W 20:24:51 10° SSW
MetOp-B 4.1 20:17:43 10° SSE 20:23:04 87° ENE 20:28:27 10° NNW
PAYLOAD B 4.4 20:19:14 10° S 20:24:43 78° WSW 20:30:16 10° NNW
USA 229 DEB 4.1 20:19:23 10° NW 20:27:01 90° ENE 20:34:05 16° SE
USA 229 4.1 20:19:26 10° NW 20:27:05 89° NE 20:34:07 16° SE
Cosmos 1743 3.5 20:25:19 10° NNE 20:27:48 23° ENE 20:28:34 20° E
Cosmos 44 Rocket 3.5 20:24:22 10° SSW 20:29:13 53° ESE 20:34:14 10° NE
ISS -3.4 20:27:18 10° SSW 20:30:27 41° SE 20:33:37 10° ENE
Cosmos 1459 Rocket 4.0 20:24:20 10° S 20:30:35 74° E 20:36:45 10° NNE
SKYMED 3 4.3 20:27:57 10° NNE 20:31:54 88° W 20:35:51 10° SSW
Cosmos 2100 Rocket 4.0 20:27:55 10° S 20:34:07 86° E 20:40:27 10° N
Ariane Rocket 4.3 20:32:21 16° ESE 20:35:02 25° ENE 20:39:07 10° N
ADEOS 3.7 20:32:34 11° S 20:37:38 79° WSW 20:42:52 10° NNW
ATLAS 2AS CENTAUR R/B 3.8 20:31:15 10° WSW 20:37:56 48° NW 20:44:32 10° NNE
Spot 2 Rocket 3.5 20:36:58 18° SSE 20:40:44 71° ENE 20:45:46 10° N
BREEZE-M DEB (TANK) 3.2 20:39:04 10° WNW 20:42:01 82° NNE 20:47:10 18° ESE
SL-4 R/B 1.8 20:39:00 10° WNW 20:42:50 74° SW 20:44:44 28° SE
MOS 1-B 4.4 20:39:56 18° SSE 20:44:21 72° ENE 20:50:08 10° N
Cosmos 2082 Rocket 2.8 20:40:45 15° SSE 20:44:45 36° ESE 20:49:54 10° NE
Okean 2 Rocket 3.6 20:40:36 10° SSW 20:45:01 62° W 20:49:29 10° N
Cosmos 1607 4.0 20:49:42 10° SSW 20:55:36 52° ESE 21:01:38 10° NE
Cosmos 2233 Rocket 4.1 20:51:19 19° SSE 20:55:44 54° E 21:01:44 10° NNE
Cosmos 2228 3.2 20:55:36 31° SE 20:57:07 47° E 21:01:04 10° NNE
Cosmos 292 Rocket 4.1 20:53:48 10° NNW 20:58:31 60° WSW 21:01:33 21° S
USA 186 1.2 20:58:27 60° S 20:58:50 79° WSW 21:01:31 10° NNW
Okean O Rocket 1.6 20:57:27 24° S 21:00:02 78° WSW 21:04:21 10° NNW
DELTA 2 R/B (1) 4.1 20:56:39 10° SW 21:01:37 34° SSE 21:03:11 29° SE
ERS-1 Rocket 4.4 21:00:16 10° SSW 21:04:45 33° W 21:09:16 10° NNW
Tsikada Rocket 4.1 20:59:31 10° N 21:05:37 60° ENE 21:08:51 28° SSE
CZ-4C R/B 2.0 21:02:33 10° SW 21:06:34 66° NW 21:11:43 10° NNE
Cosmos 1725 Rocket 4.0 21:00:28 10° S 21:06:45 86° W 21:13:04 10° N
Cosmos 1452 Rocket 3.5 21:02:09 10° SSW 21:07:22 83° WNW 21:12:39 10° NNE
COSMOS 2406 4.2 21:07:29 26° ESE 21:07:58 26° ESE 21:12:38 10° NE
Cosmos 1697 Rocket 3.4 21:02:39 10° NW 21:08:01 47° WSW 21:11:51 18° S
Cosmos 1741 Rocket 4.1 21:04:54 10° NNW 21:10:14 79° WSW 21:13:01 29° S
SL-16 R/B 3.8 21:07:45 10° N 21:12:08 22° NE 21:14:58 16° E
Okean-O 3.0 21:10:27 24° S 21:12:57 59° W 21:17:17 10° NNW
ATLAS 3B R/B 3.1 21:08:50 10° NW 21:16:29 65° WSW 21:20:47 26° SSE
CZ-4B R/B 3.3 21:19:07 40° SE 21:20:43 66° ENE 21:25:28 10° N
Cosmos 1892 Rocket 3.8 21:17:17 10° NNW 21:21:34 62° W 21:23:28 31° SSW
USA 245 4.3 21:18:48 30° SSE 21:21:52 90° ENE 21:27:47 10° NNW
Cosmos 1455 Rocket 3.7 21:19:52 15° SSW 21:23:25 54° W 21:27:46 10° N
Cosmos 1302 Rocket 3.9 21:21:11 18° SSW 21:25:04 87° ESE 21:30:17 10° NNE
Cosmos 2333 Rocket 3.7 21:20:30 10° N 21:25:06 25° NE 21:27:39 18° E
Cosmos 2016 Rocket 4.3 21:19:37 10° SSW 21:25:53 68° W 21:32:06 10° N
CZ-4B R/B 2.4 21:33:11 68° WSW 21:33:20 70° WSW 21:36:42 10° NNW
Cosmos 2061 Rocket 3.9 21:29:50 25° S 21:33:38 88° E 21:39:56 10° N
Cosmos 1782 3.5 21:32:58 29° SW 21:34:17 44° WNW 21:37:41 10° N
Cosmos 1544 Rocket 3.6 21:35:33 52° ESE 21:35:47 53° E 21:40:02 10° NNE
Cosmos 1980 Rocket 2.4 21:30:38 10° NNW 21:36:16 63° WSW 21:38:33 35° S
SPOT 3 Rocket 3.6 21:34:29 37° S 21:36:31 75° WSW 21:41:41 10° NNW
NOSS 3-3 (A) 3.5 21:34:26 27° SSW 21:37:14 68° ESE 21:43:07 10° NE
BREEZE-M DEB (TANK) 4.0 21:33:20 10° SW 21:36:17 28° SW 21:36:17 28° SW
Cosmos 1933 4.1 21:44:20 37° ENE 21:44:20 37° ENE 21:47:09 10° NNE
Fengyun 1C 4.5 21:42:41 47° SSE 21:44:14 86° ENE 21:49:31 10° NNW
Cosmos 2084 Rocket 3.6 21:45:49 10° NNW 21:49:58 57° NE 21:50:19 55° ENE
Terra 4.4 21:48:31 10° WSW 21:50:31 13° W 21:52:32 10° WNW
Helios 1B rocket 4.3 21:51:51 16° NE 21:51:51 16° NE 21:53:29 10° NNE
Cosmos 1758 Rocket 3.4 21:49:00 10° N 21:53:24 82° E 21:53:42 75° SE
IRS-1C Rocket 4.2 21:51:54 43° S 21:53:34 68° WSW 21:58:50 10° NNW
IRS-P2 Rocket 4.5 21:52:32 52° S 21:53:51 86° WSW 21:59:08 10° NNW
CZ-2C R/B 3.8 21:55:17 31° NNW 21:55:17 31° NNW 21:56:57 10° NNW
Cosmos 1464 Rocket 4.3 21:53:23 41° ESE 21:54:22 44° E 22:00:08 10° NNE
Milstar 3 4.4 21:48:20 10° WSW 21:54:30 26° S 21:54:30 26° S
Cosmos 1513 Rocket 4.4 21:56:21 47° SSE 21:58:11 70° E 22:04:20 10° NNE
Gbstr 26 Del rocket 3.0 21:56:22 10° WNW 22:00:52 66° WSW 22:00:52 66° WSW
Cosmos 2360 Rocket 3.6 21:57:36 10° N 22:02:23 27° NE 22:04:14 23° E
NOSS 3-3 (C) 3.5 22:02:52 36° SW 22:05:08 89° SE 22:11:14 10° NE
ISS -2.2 22:04:10 10° W 22:07:17 36° NNW 22:08:14 29° NNE
Geosat 4.0 22:05:53 10° NNE 22:10:54 81° WNW 22:12:24 46° SW
Cosmos 2237 4.2 22:06:24 10° NNW 22:12:08 73° WSW 22:13:13 57° S
Ariane Rocket 3.8 22:12:24 36° SW 22:13:39 43° W 22:18:29 10° NNW
USA 305 3.6 22:10:11 10° NW 22:13:09 42° NNW 22:13:09 42° NNW
Cosmos 1602 Rocket 3.6 22:14:45 10° N 22:18:42 75° N 22:18:42 75° N
Cosmos 2219 Rocket 3.8 22:15:21 10° N 22:19:52 24° NE 22:21:48 20° E
Cosmos 1437 Rocket 3.7 22:21:47 42° NNW 22:21:47 42° NNW 22:24:23 10° N
Cosmos 2369 4.2 22:21:57 10° NW 22:27:24 47° WSW 22:28:18 44° SW
Cosmos 2034 Rocket 4.2 22:27:37 52° ESE 22:28:19 54° E 22:34:29 10° NNE
Cosmos 2082 Rocket 3.5 22:23:30 10° WSW 22:28:46 37° NW 22:34:04 10° NNE
Cosmos 2151 3.6 22:25:18 10° NNW 22:28:56 47° WNW 22:28:56 47° WNW
Cosmos 2322 Rocket 2.8 22:24:42 10° NNW 22:30:08 45° ENE 22:31:03 41° E
Cosmos 1428 Rocket 4.5 22:24:12 10° N 22:30:26 66° E 22:31:20 59° ESE
Meteor 1-5 Rocket 4.1 22:33:49 10° N 22:39:31 88° E 22:40:03 75° SSE
USA 234 3.1 22:34:30 10° NE 22:41:04 72° SE 22:42:48 51° SSW
Cosmos 1763 Rocket 4.3 22:45:39 40° ENE 22:45:39 40° ENE 22:49:38 10° NNE
Okean 1-7 Rocket 4.0 22:43:21 10° N 22:47:08 62° NNW 22:47:08 62° NNW
Cosmos 1503 Rocket 4.4 22:43:56 10° NNW 22:49:02 52° ENE 22:49:02 52° ENE
Cosmos 1777 Rocket 4.0 22:44:07 10° NNW 22:49:16 68° ENE 22:49:16 68° ENE
Cosmos 2278 3.5 22:43:36 10° NNW 22:49:21 85° ENE 22:49:38 81° SE
Helios 1A 3.8 22:45:43 10° N 22:48:44 45° NNW 22:48:44 45° NNW
COSMOS 2406 4.0 22:49:26 30° WSW 22:51:55 49° WNW 22:57:30 10° NNE
Cosmos 1606 Rocket 4.1 22:52:45 56° NNW 22:52:45 56° NNW 22:56:21 10° N
SL-16 R/B 2.2 22:51:06 10° NNW 22:56:44 67° WSW 22:56:47 67° WSW
Cosmos 1634 Rocket 4.3 22:57:50 50° E 22:57:58 50° E 23:03:55 10° NNE
Cosmos 1486 Rocket 4.0 22:55:51 10° NNW 23:00:50 79° NW 23:00:50 79° NW
Nadezhda 4 Rocket 4.0 22:56:05 10° NNW 23:02:07 64° W 23:02:51 59° SW
Cosmos 2098 Rocket 4.2 23:02:09 42° W 23:02:34 43° WNW 23:07:07 10° N
Cosmos 1726 Rocket 4.5 23:06:20 42° NNW 23:06:20 42° NNW 23:09:11 10° N
SeaSat 1 4.4 23:03:53 17° ENE 23:05:31 20° NE 23:09:03 10° N
Cosmos 2333 Rocket 2.4 23:04:12 10° NNW 23:09:39 59° WSW 23:09:39 59° WSW
Meteor 2-2 Rocket 4.3 23:10:21 64° ENE 23:10:21 64° ENE 23:15:43 10° NNE
Cosmos 1076 Rocket 4.4 23:08:32 10° NNW 23:11:38 45° NNW 23:11:38 45° NNW
BREEZE-M DEB (TANK) 4.0 23:08:07 10° W 23:16:51 65° N 23:21:45 10° E
CZ-2C R/B 4.0 23:16:22 27° ENE 23:16:59 28° ENE 23:21:24 10° N
Cosmos 1833 4.2 23:17:41 71° ENE 23:17:41 71° ENE 23:22:53 10° NNE
Cosmos 1627 Rocket 4.4 23:10:56 10° N 23:17:20 89° W 23:17:52 77° S
Cosmos 2195 Rocket 4.5 23:14:04 10° NNW 23:20:15 68° W 23:20:43 66° WSW
Spot 4 4.2 23:23:21 63° NNW 23:23:21 63° NNW 23:27:22 10° NNW
Helios 1B rocket 4.5 23:25:49 19° NW 23:25:49 19° NW 23:27:07 10° NNW
Cosmos 2026 Rocket 4.0 23:20:27 10° NNW 23:26:48 73° W 23:27:17 70° SW
Aureole 1 Rocket 4.2 23:26:07 10° NNW 23:31:29 56° ENE 23:32:02 54° E
Cosmos 2297 Rocket 4.3 23:33:58 13° E 23:33:58 13° E 23:35:46 10° ENE
DNEPR-1 R/B 4.4 23:28:03 10° NW 23:33:34 70° WSW 23:33:34 70° WSW
Cosmos 2333 4.3 23:34:13 10° NNW 23:39:28 68° WNW 23:39:28 68° WNW
ALOS 2 3.6 23:43:55 42° NW 23:43:55 42° NW 23:46:59 10° NNW
ARIANE 5 R/B 3.8 23:44:33 38° NW 23:44:33 38° NW 23:47:35 10° NNW
Cosmos 2360 Rocket 2.7 23:41:09 10° NW 23:45:57 49° W 23:45:57 49° W
Cosmos 2058 Rocket 4.2 23:48:52 40° NNW 23:48:52 40° NNW 23:52:00 10° N
Cosmos 468 Rocket 4.2 23:51:08 67° NNE 23:51:08 67° NNE 23:55:42 10° NNE
GP-B 4.4 23:46:16 10° NNE 23:49:14 36° NE 23:49:14 36° NE
